Location: Moy Burn
(57.3833°N, 4.0667°W)
Time: 11:50:34
(UTC+00:00)

Cosmos 1833 Rocket - Pass Details

Date: 08 August 2020
Orbit: 831 x 841 km, 71.0° (Epoch: 21 September)

Event Time Altitude Azimuth Distance (km) Brightness Sun altitude
Rises 20:54:16 0° 189° (S) 3,368 5.5 -5.2°
Reaches altitude 10° 20:56:47 10° 184° (S) 2,440 4.8 -5.5°
Maximum altitude 21:02:03 44° 113° (ESE) 1,140 3.0 -6.0°
Drops below altitude 10° 21:07:22 10° 43° (NE) 2,461 5.1 -6.5°
Sets 21:09:55 0° 37° (NE) 3,401 5.9 -6.8°
